Date String (YYYY-MM-DD hh:mm:ss) UTC,Instrument flags,absolute air pressure of the measurement (hPa),sample flow rate (lpm),inlet stack bypass flow (lpm),air temperature of the measurement (°C),ambient temperature measured by the external sensor (°C),aerosol sample conditioner tube jacket temperature (°C),OPC LED temperature (°C),internal box temperature (°C),relative humidity of the measurement (%),span deviation,mass concentration of particles derived from Lorenz-Mie calculation of OPC scattering (μg/m³),mass concentration of particles derived from Lorenz-Mie calculation of OPC scattering (μg/m³),mass concentration of particles derived from Lorenz-Mie calculation of OPC scattering (μg/m³)
DateTimeUTC,F1_M11,P_M11,Q1_M11,Q2_M11,T1_M11,T2_M11,T3_M11,T4_M11,T5_M11,U1_M11,ZSPAN_M11,X0_M11,X2_M11,X1_M11
2023-09-25 23:00:00,SystemResetWarning,0834.9,4.99,000.00,027.8,026.4,000.0,036.1,029.7,9.5,0000.0,0009.79,0003.99,0003.24
2023-09-25 23:01:00,SystemResetWarning,0834.9,4.99,000.00,027.9,026.7,000.0,036.1,029.8,9.8,0000.0,0009.56,0003.90,0003.23
2023-09-25 23:02:00,SystemResetWarning,0834.9,4.99,000.00,028.0,026.8,000.0,036.1,029.9,9.8,0000.0,0009.78,0003.90,0003.24
2023-09-25 23:03:00,SystemResetWarning,0834.9,5.00,000.00,028.0,025.4,000.0,036.1,029.7,9.7,0000.0,0010.23,0003.92,0003.24
2023-09-25 23:04:00,SystemResetWarning,0835.4,5.00,000.00,027.9,024.2,000.0,036.1,029.5,9.6,0000.0,0010.29,0003.91,0003.24
2023-09-25 23:05:00,SystemResetWarning,0835.4,5.01,000.00,027.8,024.4,000.0,036.1,029.5,9.6,0000.0,0010.12,0003.90,0003.23
2023-09-25 23:06:00,SystemResetWarning,0835.3,5.01,000.00,027.8,024.7,000.0,036.1,029.4,9.7,0000.0,0009.24,0003.88,0003.22
2023-09-25 23:07:00,SystemResetWarning,0835.4,4.99,000.00,027.8,025.2,000.0,036.1,029.4,9.6,0000.0,0009.05,0003.80,0003.20
2023-09-25 23:08:00,SystemResetWarning,0835.3,5.00,000.00,027.8,025.6,000.0,036.1,029.5,9.7,0000.0,0009.18,0003.84,0003.21
2023-09-25 23:09:00,SystemResetWarning,0834.8,5.01,000.00,027.8,026.1,000.0,036.1,029.6,9.6,0000.0,0009.32,0003.84,0003.20
2023-09-25 23:10:00,SystemResetWarning,0834.9,5.00,000.00,027.9,026.4,000.0,036.1,029.7,9.6,0000.0,0009.35,0003.83,0003.20
2023-09-25 23:11:00,SystemResetWarning,0834.9,4.99,000.00,028.0,026.8,000.0,036.2,029.8,9.8,0000.0,0009.38,0003.84,0003.19
2023-09-25 23:12:00,SystemResetWarning,0835.0,4.99,000.00,028.0,026.9,000.0,036.2,029.9,9.9,0000.0,0009.52,0003.87,0003.18
2023-09-25 23:13:00,SystemResetWarning,0835.0,4.99,000.00,028.0,025.8,000.0,036.2,029.7,9.7,0000.0,0010.45,0003.85,0003.17
2023-09-25 23:14:00,SystemResetWarning,0835.3,5.02,000.00,027.9,024.2,000.0,036.2,029.5,10.0,0000.0,0009.82,0003.81,0003.17
2023-09-25 23:15:00,SystemResetWarning,0835.4,5.01,000.00,027.9,024.3,000.0,036.1,029.5,10.0,0000.0,0009.76,0003.81,0003.17
2023-09-25 23:16:00,SystemResetWarning,0835.4,5.00,000.00,027.8,024.6,000.0,036.1,029.4,10.5,0000.0,0009.75,0003.80,0003.16
2023-09-25 23:17:00,SystemResetWarning,0835.4,5.00,000.00,027.8,025.0,000.0,036.1,029.3,10.2,0000.0,0009.44,0003.79,0003.17
2023-09-25 23:18:00,SystemResetWarning,0835.1,5.00,000.00,027.8,025.4,000.0,036.1,029.4,10.1,0000.0,0009.60,0003.83,0003.18
2023-09-25 23:19:00,SystemResetWarning,0834.9,4.99,000.00,027.8,025.8,000.0,036.1,029.5,10.2,0000.0,0009.57,0003.82,0003.18
2023-09-25 23:20:00,SystemResetWarning,0835.3,5.00,000.00,027.8,026.2,000.0,036.2,029.6,10.4,0000.0,0009.85,0003.79,0003.18
2023-09-25 23:21:00,SystemResetWarning,0834.8,5.00,000.00,027.9,026.5,000.0,036.2,029.7,10.3,0000.0,0009.86,0003.80,0003.18
2023-09-25 23:22:00,SystemResetWarning,0835.0,5.00,000.00,028.0,026.8,000.0,036.2,029.8,10.2,0000.0,0010.11,0003.82,0003.18
2023-09-25 23:23:00,SystemResetWarning,0834.9,5.00,000.00,028.0,027.0,000.0,036.2,029.9,10.0,0000.0,0010.54,0003.85,0003.19
2023-09-25 23:24:00,SystemResetWarning,0834.9,4.98,000.00,028.0,026.1,000.0,036.3,029.9,10.4,0000.0,0009.74,0003.87,0003.19
2023-09-25 23:25:00,SystemResetWarning,0835.3,5.00,000.00,027.9,024.5,000.0,036.2,029.6,9.8,0000.0,0009.47,0003.90,0003.18
2023-09-25 23:26:00,SystemResetWarning,0835.3,5.01,000.00,027.9,024.2,000.0,036.2,029.5,9.6,0000.0,0010.80,0003.90,0003.19
2023-09-25 23:27:00,SystemResetWarning,0835.4,5.00,000.00,027.8,024.5,000.0,036.2,029.4,9.8,0000.0,0011.36,0003.91,0003.19
2023-09-25 23:28:00,SystemResetWarning,0835.3,4.99,000.00,027.8,024.9,000.0,036.1,029.3,9.6,0000.0,0012.34,0003.96,0003.20
2023-09-25 23:29:00,SystemResetWarning,0835.1,5.00,000.00,027.8,025.3,000.0,036.1,029.4,9.7,0000.0,0012.62,0003.96,0003.20
2023-09-25 23:30:00,SystemResetWarning,0834.9,5.01,000.00,027.8,025.7,000.0,036.2,029.5,9.5,0000.0,0012.96,0003.99,0003.20
2023-09-25 23:31:00,SystemResetWarning,0835.0,4.99,000.00,027.8,026.1,000.0,036.2,029.6,9.7,0000.0,0013.18,0004.00,0003.20
2023-09-25 23:32:00,SystemResetWarning,0835.0,5.00,000.00,027.9,026.4,000.0,036.2,029.7,9.7,0000.0,0013.51,0003.99,0003.20
2023-09-25 23:33:00,SystemResetWarning,0835.0,5.01,000.00,027.9,026.7,000.0,036.2,029.8,9.9,0000.0,0013.51,0003.99,0003.21
2023-09-25 23:34:00,SystemResetWarning,0835.0,4.99,000.00,028.0,027.0,000.0,036.3,029.9,10.1,0000.0,0013.06,0003.97,0003.21
2023-09-25 23:35:00,SystemResetWarning,0835.0,4.99,000.00,028.1,026.4,000.0,036.3,029.9,9.9,0000.0,0013.10,0003.93,0003.21
2023-09-25 23:36:00,SystemResetWarning,0835.0,5.01,000.00,028.0,024.6,000.0,036.3,029.7,9.6,0000.0,0012.87,0003.88,0003.21
2023-09-25 23:37:00,SystemResetWarning,0834.9,5.01,000.00,027.9,024.0,000.0,036.2,029.6,9.8,0000.0,0011.49,0003.89,0003.20
2023-09-25 23:38:00,SystemResetWarning,0834.9,5.01,000.00,027.9,024.3,000.0,036.2,029.4,10.2,0000.0,0010.99,0003.91,0003.20
2023-09-25 23:39:00,SystemResetWarning,0834.9,5.00,000.00,027.8,024.7,000.0,036.2,029.3,10.4,0000.0,0010.94,0003.92,0003.20
2023-09-25 23:40:00,SystemResetWarning,0834.9,5.00,000.00,027.8,025.1,000.0,036.2,029.4,10.4,0000.0,0010.55,0003.93,0003.22
2023-09-25 23:41:00,SystemResetWarning,0835.0,5.00,000.00,027.8,025.6,000.0,036.2,029.5,10.5,0000.0,0010.49,0003.91,0003.23
2023-09-25 23:42:00,SystemResetWarning,0834.9,5.00,000.00,027.8,026.0,000.0,036.2,029.6,10.4,0000.0,0010.71,0003.93,0003.22
2023-09-25 23:43:00,SystemResetWarning,0835.0,5.00,000.00,027.9,026.3,000.0,036.2,029.7,10.1,0000.0,0010.45,0003.97,0003.22
2023-09-25 23:44:00,SystemResetWarning,0835.0,5.01,000.00,027.9,026.6,000.0,036.2,029.7,9.9,0000.0,0010.66,0004.00,0003.22
2023-09-25 23:45:00,SystemResetWarning,0835.0,4.99,000.00,028.0,026.9,000.0,036.3,029.8,10.0,0000.0,0011.01,0004.04,0003.22
2023-09-25 23:46:00,SystemResetWarning,0835.0,4.99,000.00,028.1,027.0,000.0,036.3,029.9,9.9,0000.0,0012.04,0004.08,0003.22
2023-09-25 23:47:00,SystemResetWarning,0835.0,5.00,000.00,028.1,026.0,000.0,036.3,029.9,10.2,0000.0,0012.70,0004.12,0003.23
2023-09-25 23:48:00,SystemResetWarning,0835.0,5.00,000.00,028.0,024.4,000.0,036.3,029.6,10.1,0000.0,0013.43,0004.15,0003.22
2023-09-25 23:49:00,SystemResetWarning,0835.0,5.02,000.00,027.9,024.2,000.0,036.2,029.5,10.1,0000.0,0013.54,0004.15,0003.24
2023-09-25 23:50:00,SystemResetWarning,0835.0,5.00,000.00,027.8,024.5,000.0,036.2,029.4,10.1,0000.0,0013.78,0004.16,0003.24
2023-09-25 23:51:00,SystemResetWarning,0835.0,5.01,000.00,027.8,024.9,000.0,036.2,029.3,10.2,0000.0,0013.46,0004.15,0003.23
2023-09-25 23:52:00,SystemResetWarning,0835.0,5.00,000.00,027.8,025.3,000.0,036.2,029.4,10.1,0000.0,0013.88,0004.16,0003.22
2023-09-25 23:53:00,SystemResetWarning,0835.0,5.00,000.00,027.8,025.7,000.0,036.2,029.5,10.3,0000.0,0013.48,0004.15,0003.22
2023-09-25 23:54:00,SystemResetWarning,0835.0,5.00,000.00,027.8,026.1,000.0,036.2,029.6,10.3,0000.0,0012.93,0004.12,0003.23
2023-09-25 23:55:00,SystemResetWarning,0835.0,5.00,000.00,027.9,026.4,000.0,036.2,029.7,10.4,0000.0,0012.75,0004.11,0003.23
2023-09-25 23:56:00,SystemResetWarning,0835.1,5.00,000.00,027.9,026.7,000.0,036.3,029.8,10.3,0000.0,0012.88,0004.08,0003.23
2023-09-25 23:57:00,SystemResetWarning,0835.1,5.00,000.00,028.0,026.9,000.0,036.3,029.8,10.4,0000.0,0012.41,0004.03,0003.24
2023-09-25 23:58:00,SystemResetWarning,0835.1,5.00,000.00,028.1,027.1,000.0,036.3,029.9,10.1,0000.0,0012.26,0004.05,0003.24
2023-09-25 23:59:00,SystemResetWarning,0835.1,4.99,000.00,028.1,026.5,000.0,036.3,030.0,10.3,0000.0,0011.93,0004.03,0003.25
